Ketchikan, AK

12:46 AM AKST on December 19, 2018 (GMT -0900)
Ketchikan International

Weather History for PAKT - May, 2018

Change the Weather History Date:

Sunday, May 27, 2018

  Actual Average Record
Temperature  
Mean Temperature 46 °F -  
Max Temperature 48 °F 58 °F 79 °F (1958)
Min Temperature 44 °F 43 °F 35 °F (1997)
Degree Days  
Heating Degree Days 19    
Moisture  
Dew Point 42 °F    
Average Humidity 86    
Maximum Humidity 93    
Minimum Humidity 79    
Precipitation  
Precipitation 0.19 in - - ()
Sea Level Pressure  
Sea Level Pressure 29.92 in    
Wind  
Wind Speed 6 mph (SE)    
Max Wind Speed 13 mph    
Max Gust Speed -    
Visibility 9 miles    
Events Rain    
Averages and records for this station are not official NWS values.
T = Trace of Precipitation, MM = Missing Value Source: NWS Daily Summary

Daily Weather History Graph

Daily Weather History Graph

Search for Another Location

Airport or City:

Astronomy

May. 27, 2018 Rise Set
Actual Time 4:18 AM AKDT 9:10 PM AKDT
Civil Twilight 3:25 AM AKDT 10:04 PM AKDT
Nautical Twilight 1:51 AM AKDT 11:40 PM AKDT
Astronomical Twilight Sun does not rise Sun does not rise
Moon 6:58 PM AKDT (5/27) 4:07 AM AKDT (5/27)
Length of Visible Light 18h 38m
Length of Day
16h 51m
Waxing Gibbous, 97% of the Moon is Illuminated
May 27
Waxing Gibbous
May 29
Full
Jun 6
Last Quarter
Jun 13
New
Jun 20
First Quarter

Hourly Weather History & Observations

Time (AKDT) Temp. Windchill Dew Point Humidity Pressure Visibility Wind Dir Wind Speed Gust Speed Precip Events Conditions
12:53 AM 46.9 °F - 43.0 °F 86% 29.87 in 10.0 mi ESE 5.8 mph - 0.00 in   Overcast
1:53 AM 45.0 °F 42.6 °F 39.0 °F 80% 29.90 in 10.0 mi Variable 4.6 mph - N/A   Clear
2:53 AM 46.0 °F 42.5 °F 39.9 °F 79% 29.92 in 10.0 mi SE 6.9 mph - N/A   Clear
3:53 AM 46.9 °F - 41.0 °F 80% 29.93 in 10.0 mi SE 11.5 mph - N/A   Mostly Cloudy
4:53 AM 46.9 °F - 42.1 °F 83% 29.94 in 10.0 mi SE 6.9 mph - 0.00 in   Overcast
5:53 AM 46.9 °F - 41.0 °F 80% 29.94 in 10.0 mi SE 8.1 mph - N/A   Mostly Cloudy
6:12 AM 46.4 °F 42.9 °F 41.0 °F 81% 29.93 in 10.0 mi SSE 6.9 mph - N/A   Overcast
6:53 AM 46.4 °F 43.5 °F 42.8 °F 87% 29.94 in 10.0 mi SSE 5.8 mph - N/A   Overcast
7:53 AM 48.2 °F - 42.8 °F 82% 29.94 in 10.0 mi SE 6.9 mph - N/A Rain Light Rain
8:53 AM 48.2 °F - 42.8 °F 82% 29.94 in 7.0 mi SE 6.9 mph - N/A Rain Light Rain
9:53 AM 48.2 °F - 44.6 °F 87% 29.94 in 7.0 mi SE 12.7 mph - N/A Rain Light Rain
10:53 AM 48.2 °F - 44.6 °F 87% 29.93 in 10.0 mi SE 9.2 mph - N/A Rain Light Rain
11:53 AM 48.2 °F - 44.6 °F 87% 29.91 in 6.0 mi SE 11.5 mph - N/A Rain Light Rain
12:53 PM 48.2 °F - 42.8 °F 82% 29.90 in 6.0 mi SE 9.2 mph - N/A Rain Light Rain
1:53 PM 48.0 °F - 43.0 °F 83% 29.88 in 10.0 mi Calm Calm - 0.06 in Rain Light Rain
2:53 PM 46.9 °F - 43.0 °F 86% 29.88 in 10.0 mi Calm Calm - 0.06 in Rain Light Rain
3:53 PM 46.4 °F 45.2 °F 42.8 °F 87% 29.86 in 10.0 mi WNW 3.5 mph - N/A Rain Light Rain
4:53 PM 46.4 °F 44.3 °F 42.8 °F 87% 29.84 in 7.0 mi WNW 4.6 mph - N/A Rain Light Rain
5:53 PM 46.4 °F 45.2 °F 42.8 °F 87% 29.84 in 7.0 mi NW 3.5 mph - N/A Rain Light Rain
6:53 PM 44.6 °F 41.4 °F 42.8 °F 93% 29.84 in 7.0 mi NW 5.8 mph - N/A Rain Light Rain
7:53 PM 46.4 °F 42.4 °F 42.8 °F 87% 29.86 in 10.0 mi NNW 8.1 mph - N/A Rain Light Rain
8:53 PM 46.0 °F 41.9 °F 42.1 °F 86% 29.88 in 10.0 mi NNW 8.1 mph - 0.03 in Rain Light Rain
9:53 PM 45.0 °F - 42.1 °F 90% 29.93 in 10.0 mi Calm Calm - 0.02 in Rain Light Rain
10:51 PM 44.6 °F 43.1 °F 42.8 °F 93% 29.96 in 4.0 mi SSE 3.5 mph - 0.06 in Rain Rain
11:07 PM 44.1 °F 42.5 °F 42.1 °F 93% 29.97 in 5.0 mi SSE 3.5 mph - 0.02 in Rain Light Rain
11:20 PM 45.0 °F 41.8 °F 42.1 °F 90% 29.98 in 10.0 mi SE 5.8 mph - 0.02 in Rain Light Rain
11:34 PM 44.1 °F 42.5 °F 42.1 °F 93% 29.99 in 10.0 mi SSE 3.5 mph - 0.02 in   Overcast
11:53 PM 44.1 °F 41.5 °F 42.1 °F 93% 30.00 in 10.0 mi South 4.6 mph - 0.02 in   Mostly Cloudy